Hourly Data Report for September 13, 2017

All times are specified in Local Standard Time (LST). Add 1 hour to adjust for Daylight Saving Time where and when it is observed.

FREDERICTON
NEW BRUNSWICK

45°52'08.000" N
66°32'14.000" W
20.70 m
8101505
71700
YFC

Download Data

Hourly Data (September 2017)
Hourly Data Report for September 13, 2017
Temp Definition
°C
Dew Point Temp Definition
°C
Rel Hum Definition
%
Wind Dir Definition
10's deg

Wind Spd Definition
km/h
Visibility Definition
km
Stn Press Definition
kPa
Hmdx Definition


Wind Chill Definition


Weather Definition


TIME
00:00 Legend Double Dagger 14.2 11.4 83 31 4 16.1 100.43     LegendNANA
01:00 Legend Double Dagger 14.6 11.4 81 29 8 16.1 100.44     LegendNANA
02:00 Legend Double Dagger 11.7 10.6 93 23 5 16.1 100.45     LegendNANA
03:00 Legend Double Dagger 12.0 10.7 92 LegendMM 4 16.1 100.45     LegendNANA
04:00 Legend Double Dagger 11.9 10.9 94   0 16.1 100.44     LegendNANA
05:00 Legend Double Dagger 10.7 9.9 95 20 5 16.1 100.46     LegendNANA
06:00 Legend Double Dagger 10.7 10.4 98 21 8 9.7 100.52     Fog
07:00 Legend Double Dagger 11.2 10.6 96 21 8 16.1 100.58     LegendNANA
08:00 Legend Double Dagger 15.8 12.9 83 27 5 16.1 100.60     LegendNANA
09:00 Legend Double Dagger 19.3 13.7 70 29 5 16.1 100.61     LegendNANA
10:00 Legend Double Dagger 21.4 13.4 60 27 5 16.1 100.57     LegendNANA
11:00 Legend Double Dagger 24.1 12.5 48 29 11 16.1 100.55 27   LegendNANA
12:00 Legend Double Dagger 25.4 12.2 43 27 15 16.1 100.51 28   LegendNANA
13:00 Legend Double Dagger 26.0 9.1 34 26 15 16.1 100.48 27   LegendNANA
14:00 Legend Double Dagger 26.8 8.7 31 26 15 16.1 100.45 28   LegendNANA
15:00 Legend Double Dagger 26.9 8.6 31 27 15 16.1 100.39 28   LegendNANA
16:00 Legend Double Dagger 27.0 10.1 34 25 18 16.1 100.37 28   LegendNANA
17:00 Legend Double Dagger 26.3 10.6 37 24 11 16.1 100.38 28   LegendNANA
18:00 Legend Double Dagger 23.1 12.9 52 22 9 16.1 100.39 26   LegendNANA
19:00 Legend Double Dagger 20.3 12.6 61 22 9 16.1 100.39     LegendNANA
20:00 Legend Double Dagger 17.2 12.4 73 21 11 16.1 100.45     LegendNANA
21:00 Legend Double Dagger 17.7 12.2 70 21 13 16.1 100.46     LegendNANA
22:00 Legend Double Dagger 17.0 12.3 74 19 13 16.1 100.45     LegendNANA
23:00 Legend Double Dagger 15.9 12.0 77 19 9 16.1 100.47     LegendNANA

Notes on Data Quality.

Legend

  • E = Estimated
  • M = Missing
  • NA = Not Available
  • ‡ = Partner data that is not subject to review by the National Climate Archives
Date modified: